User: anonymous   Login
Location: ????????
(38.4362°N, 22.8767°E)
Time: 17:18:13
(UTC+00:00)
Language:

UNK - Orbit

View from above orbital plane
View from above orbital plane
View from above satellite
View from above satellite

Ground track
Ground track

The orbit data is extracted from the following two-line orbital elements,

1 27940U 03042B   24174.00428984  .00001085  00000-0  20130-3 0  9997
2 27940  98.3148 325.2277 0014538 118.0834 242.1841 14.67268485108182
Epoch (UTC): 22 June 2024 00:06:10
Eccentricity: 0.0014538
inclination: 98.3148°
perigee height: 659 km
apogee height: 680 km
right ascension of ascending node: 325.2277°
argument of perigee: 118.0834°
revolutions per day: 14.67268485
mean anomaly at epoch: 242.1841°
orbit number at epoch: 10818

The dashed part of the orbit path shows where the satellite is in the earth's shadow,  

DLR